Flag for China Weather past 2 weeks in Kashgar, Xinjiang, China

Now
36 °F

Passing clouds.


Feels Like: 31 °F
Forecast: 29 / 42 °F
Wind: 6 mph from North

Location: Kashi Airport

Current Time: Feb 28, 2015 at 9:57:12 AM

Latest Report: Feb 28, 2015 at 9:00 AM


Visibility: 4 mi

Pressure: 30.33 "Hg

Humidity: 75%

Dew point: 28 °F

Location of KashgarLocation

Historic Weather in Kashgar — Graph

°F

Kashgar temperature yesterday

Maximum temperature yesterday: 41 °F (at 5:00 PM)
Minimum temperature yesterday: 32 °F (at 8:00 AM)
Average temperature yesterday: 36 °F

Past Weeks' High & Low Weather Summary

 TemperatureHumidityPressure
High55 °F (Feb 13, 3:00 PM)93% (Feb 26, 11:00 PM)30.33 "Hg (Feb 26, 11:00 PM)
Low30 °F (Feb 15, 7:00 AM)11% (Feb 13, 3:00 PM)29.77 "Hg (Feb 26, 6:00 AM)
Average41 °F43%30.02 "Hg
* Reported Feb 13 8:00 AM — Feb 28 8:00 AM, Kashgar, Weather by CustomWeather, © 2015

Note: Actual official high and low records may vary slightly from our data, if they occured in-between our weather recording intervals... More about our weather records

Advertising

Kashgar weather history for previous 24 hours

 ConditionsComfort  
Time TempWeatherWind HumidityBarometerVisibility
8:00 AM
Sat, Feb 28
36 °FPassing clouds.6 mph75%30.33 "Hg4 mi
7:00 AM36 °FPassing clouds.6 mph75%30.30 "Hg4 mi
6:00 AM37 °FPassing clouds.6 mph70%30.30 "Hg4 mi
5:00 AM37 °FPassing clouds.6 mph70%30.30 "Hg4 mi
4:00 AM37 °FPassing clouds.8 mph70%30.30 "Hg4 mi
3:00 AM37 °FPassing clouds.8 mph75%30.33 "Hg4 mi
2:00 AM37 °FPassing clouds.10 mph70%30.33 "Hg4 mi
1:00 AM37 °FPassing clouds.10 mph75%30.30 "Hg4 mi
12:00 AM37 °FPassing clouds.8 mph75%30.30 "Hg4 mi
11:00 PM
Fri, Feb 27
37 °FPassing clouds.8 mph70%30.30 "Hg4 mi
10:00 PM39 °FPassing clouds.6 mph65%30.30 "Hg4 mi
9:00 PM41 °FPassing clouds.3 mph61%30.27 "Hg4 mi
8:00 PM41 °FPartly sunny.6 mph66%30.24 "Hg4 mi
7:00 PM41 °FScattered clouds.6 mph66%30.21 "Hg4 mi
6:00 PM41 °FPartly sunny.8 mph66%30.21 "Hg3 mi
5:00 PM41 °FPartly sunny.3 mph66%30.21 "Hg3 mi
4:00 PM39 °FSnow flurries. Partly sunny.3 mph61%30.21 "Hg3 mi
3:00 PM39 °FScattered clouds.8 mph65%30.21 "Hg3 mi
2:00 PM39 °FScattered clouds.6 mph65%30.24 "Hg3 mi
1:00 PM37 °FPartly sunny.6 mph70%30.21 "Hg2 mi
12:00 PM36 °FFog.6 mph81%30.21 "Hg2 mi
11:00 AM34 °FLight rain. Fog.No wind87%30.18 "Hg2 mi
10:00 AM34 °FLight snow. Fog.No wind93%30.15 "Hg2 mi
9:00 AM34 °FLight rain. Fog.3 mph93%30.15 "Hg2 mi
Weather by CustomWeather, © 2015

See weather overviewHow to use our weather pages